Hourly Data Report for October 30, 2016

All times are specified in Local Standard Time (LST). Add 1 hour to adjust for Daylight Saving Time where and when it is observed.

ST LEONARD CS
NEW BRUNSWICK

47°09'28.050" N
67°49'55.014" W
245.00 m
810I001
71019
WIY

Download Data

Hourly Data (October 2016)
Hourly Data Report for October 30, 2016
Temp Definition
°C
Dew Point Temp Definition
°C
Rel Hum Definition
%
Wind Dir Definition
10's deg

Wind Spd Definition
km/h
Visibility Definition
km
Stn Press Definition
kPa
Hmdx Definition


Wind Chill Definition


Weather Definition


TIME
00:00 4.4 4.0 98 18 5   97.59     LegendNANA
01:00 4.1 3.6 97 16 1   97.55     LegendNANA
02:00 3.6 3.2 97 35 7   97.50     LegendNANA
03:00 3.4 3.1 98 36 8   97.52     LegendNANA
04:00 3.2 2.9 98 35 6   97.56     LegendNANA
05:00 3.2 2.9 98 30 11   97.62     LegendNANA
06:00 3.1 2.8 98 29 11   97.64     LegendNANA
07:00 2.8 2.5 98 30 15   97.72     LegendNANA
08:00 2.7 2.4 97 31 13   97.80     LegendNANA
09:00 3.1 2.6 97 31 15   97.85     LegendNANA
10:00 3.5 2.9 96 31 19   97.86     LegendNANA
11:00 4.5 3.6 94 31 17   97.86     LegendNANA
12:00 5.1 3.8 91 31 18   97.86     LegendNANA
13:00 4.9 4.2 95 30 16   97.89     LegendNANA
14:00 5.5 4.4 92 32 17   97.91     LegendNANA
15:00 5.3 3.5 88 30 16   97.97     LegendNANA
16:00 4.9 3.0 87 31 19   97.97     LegendNANA
17:00 4.5 2.8 89 31 17   98.02     LegendNANA
18:00 4.3 2.4 88 31 14   98.11     LegendNANA
19:00 4.0 2.1 87 31 13   98.15     LegendNANA
20:00 3.7 2.2 90 32 16   98.17     LegendNANA
21:00 3.3 1.9 90 32 12   98.18     LegendNANA
22:00 3.3 2.1 92 31 11   98.19     LegendNANA
23:00 3.2 2.2 94 30 9   98.18     LegendNANA

Notes on Data Quality.

Legend

  • E = Estimated
  • M = Missing
  • NA = Not Available
  • ‡ = Partner data that is not subject to review by the National Climate Archives
Date modified: